Date String (YYYY-MM-DD hh:mm:ss) UTC,Instrument flags,Ambient pressure (hPa),Sample flow (lpm),Bypass flow (lpm),Sample temperature (°C),Ambient temperature (°C),ASC tube jacket temperature (°C),LED temperature (°C),Box temperature (°C),Sample RH (%),Span deviation,Mass concentration (μg/m³),Mass concentration (μg/m³),Mass concentration (μg/m³)
DateTimeUTC,F1_M11,P_M11,Q1_M11,Q2_M11,T1_M11,T2_M11,T3_M11,T4_M11,T5_M11,U1_M11,ZSPAN_M11,X0_M11,X2_M11,X1_M11
2022-08-11 01:00:00,,0831.1,4.99,0.00,29.5,28.2,00.0,38.2,31.4,22.7,0000.0,0014.29,0005.05,0003.95
2022-08-11 01:01:00,,0831.2,5.00,0.00,29.5,27.6,00.0,38.1,31.3,21.4,0000.0,0014.25,0005.02,0003.95
2022-08-11 01:02:00,,0831.2,4.99,0.00,29.4,27.2,00.0,38.1,31.2,21.5,0000.0,0014.73,0005.00,0003.94
2022-08-11 01:03:00,,0831.1,5.01,0.00,29.4,27.2,00.0,38.1,31.2,21.8,0000.0,0015.58,0005.01,0003.93
2022-08-11 01:04:00,,0831.2,4.99,0.00,29.4,27.4,00.0,38.1,31.1,21.7,0000.0,0015.54,0005.04,0003.93
2022-08-11 01:05:00,,0831.1,5.00,0.00,29.4,27.6,00.0,38.1,31.2,21.2,0000.0,0015.10,0005.06,0003.94
2022-08-11 01:06:00,,0831.2,4.99,0.00,29.4,27.8,00.0,38.1,31.3,21.1,0000.0,0014.92,0005.07,0003.94
2022-08-11 01:07:00,,0831.2,5.02,0.00,29.4,28.1,00.0,38.1,31.4,21.3,0000.0,0014.75,0005.11,0003.94
2022-08-11 01:08:00,,0831.2,5.00,0.00,29.5,28.2,00.0,38.2,31.5,21.3,0000.0,0015.00,0005.17,0003.94
2022-08-11 01:09:00,,0831.2,5.01,0.00,29.5,27.9,00.0,38.1,31.4,21.2,0000.0,0016.13,0005.21,0003.93
2022-08-11 01:10:00,,0831.2,4.99,0.00,29.4,27.3,00.0,38.1,31.2,21.0,0000.0,0015.88,0005.18,0003.93
2022-08-11 01:11:00,,0831.2,5.01,0.00,29.4,27.2,00.0,38.1,31.2,21.2,0000.0,0016.02,0005.18,0003.93
2022-08-11 01:12:00,,0831.2,4.99,0.00,29.3,27.3,00.0,38.1,31.1,21.2,0000.0,0016.42,0005.23,0003.92
2022-08-11 01:13:00,,0831.2,5.01,0.00,29.3,27.4,00.0,38.1,31.1,21.1,0000.0,0015.96,0005.25,0003.93
2022-08-11 01:14:00,,0831.2,4.99,0.00,29.3,27.7,00.0,38.1,31.2,21.4,0000.0,0015.51,0005.28,0003.93
2022-08-11 01:15:00,,0831.2,5.00,0.00,29.4,27.9,00.0,38.1,31.3,21.5,0000.0,0016.05,0005.31,0003.92
2022-08-11 01:16:00,,0831.2,5.00,0.00,29.4,28.1,00.0,38.1,31.4,21.7,0000.0,0016.09,0005.31,0003.91
2022-08-11 01:17:00,,0831.2,5.00,0.00,29.5,28.3,00.0,38.1,31.5,21.2,0000.0,0015.27,0005.28,0003.90
2022-08-11 01:18:00,,0831.2,5.00,0.00,29.5,28.0,00.0,38.1,31.4,21.2,0000.0,0015.09,0005.29,0003.92
2022-08-11 01:19:00,,0831.2,5.01,0.00,29.4,27.4,00.0,38.1,31.3,21.7,0000.0,0014.51,0005.29,0003.94
2022-08-11 01:20:00,,0831.2,4.99,0.00,29.4,27.3,00.0,38.1,31.2,22.5,0000.0,0013.48,0005.26,0003.95
2022-08-11 01:21:00,,0831.2,5.01,0.00,29.4,27.3,00.0,38.1,31.2,22.1,0000.0,0013.53,0005.26,0003.94
2022-08-11 01:22:00,,0831.2,4.99,0.00,29.3,27.5,00.0,38.1,31.1,22.2,0000.0,0014.05,0005.25,0003.94
2022-08-11 01:23:00,,0831.2,5.00,0.00,29.3,27.7,00.0,38.1,31.2,22.2,0000.0,0013.26,0005.15,0003.94
2022-08-11 01:24:00,,0831.2,5.00,0.00,29.4,27.9,00.0,38.1,31.3,21.9,0000.0,0013.53,0005.11,0003.93
2022-08-11 01:25:00,,0831.2,5.01,0.00,29.4,28.1,00.0,38.1,31.4,22.0,0000.0,0013.66,0005.04,0003.93
2022-08-11 01:26:00,,0831.2,4.99,0.00,29.5,28.3,00.0,38.2,31.5,21.9,0000.0,0013.21,0004.97,0003.92
2022-08-11 01:27:00,,0831.2,5.00,0.00,29.5,28.1,00.0,38.2,31.4,22.0,0000.0,0013.25,0004.97,0003.93
2022-08-11 01:28:00,,0831.2,5.00,0.00,29.4,27.4,00.0,38.1,31.2,22.3,0000.0,0014.59,0004.99,0003.94
2022-08-11 01:29:00,,0831.2,4.99,0.00,29.4,27.2,00.0,38.1,31.2,21.9,0000.0,0014.68,0004.94,0003.92
2022-08-11 01:30:00,,0831.2,5.01,0.00,29.4,27.2,00.0,38.1,31.1,21.9,0000.0,0015.12,0004.92,0003.90
2022-08-11 01:31:00,,0831.2,4.98,0.00,29.3,27.4,00.0,38.1,31.1,21.8,0000.0,0015.28,0004.89,0003.89
2022-08-11 01:32:00,,0831.2,5.02,0.00,29.3,27.6,00.0,38.1,31.2,22.0,0000.0,0015.09,0004.87,0003.89
2022-08-11 01:33:00,,0831.2,5.00,0.00,29.4,27.8,00.0,38.1,31.3,22.0,0000.0,0014.92,0004.90,0003.89
2022-08-11 01:34:00,,0831.2,5.00,0.00,29.4,28.1,00.0,38.1,31.4,22.0,0000.0,0015.27,0005.00,0003.90
2022-08-11 01:35:00,,0831.2,4.99,0.00,29.5,28.3,00.0,38.2,31.5,21.9,0000.0,0015.26,0005.04,0003.91
2022-08-11 01:36:00,,0831.2,5.00,0.00,29.5,28.4,00.0,38.2,31.5,21.8,0000.0,0014.96,0005.09,0003.93
2022-08-11 01:37:00,,0831.2,5.00,0.00,29.5,27.8,00.0,38.2,31.3,22.0,0000.0,0015.48,0005.11,0003.94
2022-08-11 01:38:00,,0831.2,5.00,0.00,29.5,27.3,00.0,38.1,31.2,21.9,0000.0,0015.18,0005.09,0003.94
2022-08-11 01:39:00,,0831.2,5.00,0.00,29.4,27.2,00.0,38.1,31.2,21.6,0000.0,0014.21,0005.16,0003.94
2022-08-11 01:40:00,,0831.2,5.00,0.00,29.4,27.4,00.0,38.1,31.1,21.8,0000.0,0014.43,0005.23,0003.94
2022-08-11 01:41:00,,0831.2,4.99,0.00,29.3,27.5,00.0,38.1,31.2,21.9,0000.0,0014.83,0005.24,0003.94
2022-08-11 01:42:00,,0831.2,5.00,0.00,29.4,27.8,00.0,38.1,31.3,22.1,0000.0,0014.36,0005.23,0003.95
2022-08-11 01:43:00,,0831.2,5.00,0.00,29.4,28.0,00.0,38.1,31.3,22.3,0000.0,0014.82,0005.28,0003.97
2022-08-11 01:44:00,,0831.2,5.01,0.00,29.5,28.2,00.0,38.2,31.5,22.4,0000.0,0014.74,0005.25,0003.97
2022-08-11 01:45:00,,0831.2,5.01,0.00,29.5,28.3,00.0,38.2,31.5,22.5,0000.0,0014.62,0005.18,0003.97
2022-08-11 01:46:00,,0831.1,4.99,0.00,29.5,27.8,00.0,38.2,31.3,22.8,0000.0,0014.68,0005.18,0003.97
2022-08-11 01:47:00,,0831.2,5.00,0.00,29.4,27.3,00.0,38.1,31.2,23.3,0000.0,0014.83,0005.19,0003.98
2022-08-11 01:48:00,,0831.2,5.01,0.00,29.4,27.2,00.0,38.1,31.2,23.9,0000.0,0014.03,0005.20,0003.99
2022-08-11 01:49:00,,0831.2,5.00,0.00,29.3,27.2,00.0,38.1,31.1,23.6,0000.0,0014.30,0005.24,0003.99
2022-08-11 01:50:00,,0831.2,4.99,0.00,29.3,27.4,00.0,38.1,31.1,23.7,0000.0,0014.10,0005.17,0003.99
2022-08-11 01:51:00,,0831.2,5.00,0.00,29.3,27.6,00.0,38.1,31.2,23.8,0000.0,0015.23,0005.15,0003.98
2022-08-11 01:52:00,,0831.2,5.00,0.00,29.4,27.9,00.0,38.1,31.3,23.8,0000.0,0015.16,0005.20,0004.00
2022-08-11 01:53:00,,0831.2,5.00,0.00,29.4,28.1,00.0,38.1,31.4,24.0,0000.0,0015.02,0005.24,0004.01
2022-08-11 01:54:00,,0831.2,4.99,0.00,29.5,28.3,00.0,38.2,31.5,23.5,0000.0,0014.95,0005.27,0004.02
2022-08-11 01:55:00,,0831.2,4.99,0.00,29.5,28.2,00.0,38.2,31.4,22.5,0000.0,0014.97,0005.28,0004.02
2022-08-11 01:56:00,,0831.2,5.00,0.00,29.5,27.5,00.0,38.2,31.3,22.1,0000.0,0015.13,0005.27,0004.01
2022-08-11 01:57:00,,0831.2,4.99,0.00,29.4,27.1,00.0,38.1,31.2,22.0,0000.0,0014.92,0005.29,0004.01
2022-08-11 01:58:00,,0831.2,5.01,0.00,29.4,27.1,00.0,38.1,31.1,21.9,0000.0,0014.84,0005.31,0004.00
2022-08-11 01:59:00,,0831.2,4.99,0.00,29.3,27.3,00.0,38.1,31.1,21.9,0000.0,0014.92,0005.33,0003.99
